Theta_e
272 272 273 274 275 275 275 276 277 278 279 279 279 280 280 281 281 282 282 282 283 283 284 284 284 285 285 285 285 284 284 284 284 284 284 285 285 285 285 285 285 284 284 285 285 286 286 286 286 286 286 286 286 287 287 287 288 289 289 289 289 288 288
270 270 271 271 272 273 273 273 274 275 276 276 277 278 278 279 279 280 280 280 281 281 281 282 283 283 284 284 285 285 285 285 285 285 285 284 284 284 284 284 284 284 283 284 284 285 285 286 286 285 285 285 285 286 286 286 286 287 287 287 287 287 287
269 269 269 269 269 270 271 271 271 272 273 273 274 275 276 276 277 277 278 278 278 279 279 280 281 281 282 282 283 284 284 285 285 285 285 285 285 285 285 284 284 284 284 283 284 284 285 285 285 285 285 285 285 285 285 285 285 286 286 286 286 286 286
268 268 268 268 268 268 268 269 269 269 270 271 271 272 273 274 274 275 275 276 276 277 278 278 279 279 279 280 281 282 283 283 284 284 285 285 285 285 285 285 285 284 284 284 284 284 284 285 285 285 285 285 285 285 285 285 285 285 285 285 285 285 285
267 267 267 267 267 267 267 268 268 268 268 269 270 270 270 271 272 273 273 274 275 275 276 276 277 277 278 278 279 280 280 281 282 283 283 284 284 284 284 285 285 285 285 284 284 284 284 284 285 285 285 285 285 285 285 285 286 285 286 286 285 285 285
265 265 265 266 266 266 266 266 267 267 268 268 269 269 269 270 270 271 271 272 273 273 274 274 275 275 276 276 277 277 277 278 280 281 281 282 282 283 283 283 284 284 284 284 284 284 284 284 284 285 285 285 285 285 285 285 286 286 285 285 285 285 285
265 264 264 265 265 265 265 266 266 266 267 268 268 268 269 269 269 269 270 270 271 272 273 273 274 274 275 275 275 276 276 276 277 278 279 279 280 281 281 282 283 283 283 283 283 283 283 284 284 284 284 285 285 285 285 285 285 285 286 286 285 285 285
264 264 264 264 264 265 265 265 265 265 266 267 267 268 269 268 268 268 269 269 269 270 271 272 273 274 274 275 275 276 276 276 276 276 277 277 278 278 279 280 280 281 282 282 283 283 283 283 283 283 283 284 284 284 284 284 284 285 285 286 285 285 285
263 263 263 263 263 264 264 264 265 265 266 267 267 268 268 268 268 268 268 267 268 268 269 270 272 273 274 274 275 275 276 276 276 275 275 276 276 276 277 277 278 279 279 280 281 282 282 282 282 282 282 283 283 283 283 284 284 284 284 285 285 285 285
262 262 262 262 262 263 263 264 264 264 265 267 268 268 268 268 268 267 267 267 266 267 267 268 269 271 272 273 274 274 275 275 275 275 275 275 275 274 275 275 275 276 277 278 279 280 281 281 282 282 282 282 282 282 282 283 283 283 283 284 284 284 285
261 261 261 261 261 262 262 263 263 264 265 267 267 268 267 267 267 267 266 266 266 265 266 266 267 268 270 271 272 272 273 274 274 274 274 274 274 274 274 274 273 274 274 275 276 277 278 279 280 281 281 281 282 282 282 282 282 282 283 283 283 283 284
260 260 261 261 261 261 262 262 262 263 264 266 267 267 267 267 267 266 266 265 265 264 264 265 266 267 267 268 269 270 271 272 272 272 273 273 273 273 273 273 273 273 273 273 274 274 275 276 277 278 279 280 280 280 280 281 281 281 281 281 282 282 283
260 260 260 260 260 260 261 261 261 262 264 265 266 266 267 267 266 265 265 264 264 263 263 264 265 266 266 267 268 269 269 270 270 271 271 272 272 272 272 272 272 272 272 272 272 272 273 273 274 275 276 277 278 278 278 278 279 279 279 279 280 280 281
259 259 259 259 259 259 260 261 261 261 263 264 265 266 266 266 265 264 264 263 263 263 263 264 265 265 266 266 267 268 268 268 269 269 270 270 270 271 271 271 271 272 272 272 271 271 272 272 272 273 273 275 276 276 275 276 276 277 277 277 278 278 279
259 258 258 259 259 259 259 260 260 261 262 263 264 265 265 264 263 263 263 263 263 262 263 263 264 264 264 265 266 267 267 267 268 269 269 269 269 270 270 270 270 271 271 271 271 271 272 272 272 272 273 273 274 274 274 275 275 275 275 276 276 277 277
258 258 258 258 258 258 259 259 260 260 261 262 264 264 264 263 263 263 263 263 262 262 262 263 263 263 263 264 264 265 266 266 267 268 268 268 268 268 269 269 269 269 270 270 271 271 272 272 272 272 273 274 274 274 274 274 274 275 275 275 276 276 277
258 258 258 258 258 258 258 259 260 260 260 261 263 264 264 263 263 263 263 262 262 262 262 262 262 262 262 263 263 264 265 266 267 267 268 268 268 268 268 268 268 268 268 269 269 270 271 271 271 272 272 272 273 272 272 272 272 273 274 275 276 276 277
257 258 258 258 258 258 258 259 259 259 259 261 263 263 263 263 263 262 262 262 261 261 261 261 262 262 262 262 262 263 264 265 266 267 267 267 267 268 268 267 268 268 267 268 268 268 268 269 269 270 270 270 271 271 271 270 270 271 272 273 274 275 276
257 257 258 258 258 258 258 259 259 259 259 260 262 263 263 262 262 261 261 261 260 261 261 261 261 261 261 261 262 262 263 264 265 265 266 266 267 267 267 267 267 267 267 267 267 267 267 267 267 268 268 269 269 269 270 270 270 269 270 270 272 274 275
257 257 257 258 258 258 258 258 259 259 259 260 261 262 262 261 260 260 260 260 260 261 261 261 260 260 261 261 261 261 262 263 264 265 265 266 266 266 266 267 267 267 267 266 266 266 266 266 266 266 266 267 267 268 268 269 270 269 269 269 270 272 273
257 257 257 258 258 258 258 258 258 258 258 258 259 260 261 260 259 259 260 260 260 260 260 259 259 260 260 260 260 260 261 263 264 264 264 264 265 265 266 266 266 265 265 265 265 265 265 265 265 265 265 265 265 266 268 269 269 269 270 270 270 271 271
257 257 257 257 257 257 257 258 257 257 257 257 258 259 259 258 258 259 260 259 259 259 259 258 259 259 259 259 260 260 262 263 263 262 262 262 263 263 263 263 263 264 264 264 264 264 264 264 263 263 263 264 264 265 266 267 268 269 269 270 270 270 270
257 256 256 256 257 257 257 257 257 257 257 257 257 257 257 258 258 258 259 259 258 258 258 258 258 258 258 259 259 260 260 261 260 260 260 261 261 261 261 262 262 262 262 263 263 263 263 263 263 263 263 263 264 264 265 265 266 267 268 268 269 269 269
256 256 256 256 256 256 256 256 256 256 256 256 256 256 256 257 257 257 258 258 258 257 257 257 257 257 258 258 258 259 259 259 259 259 259 260 260 260 260 261 261 261 261 262 262 262 262 262 263 263 263 264 264 264 264 264 265 266 267 267 268 268 268
255 255 255 255 255 255 255 255 255 255 255 255 255 255 255 256 256 256 256 256 257 257 257 257 257 257 257 257 257 257 258 257 257 258 258 258 259 259 260 260 260 261 261 261 261 262 262 262 263 263 264 264 264 264 264 264 265 265 266 267 267 267 268
255 255 254 254 254 254 254 254 254 254 254 255 255 255 255 255 255 256 256 256 256 256 256 256 256 257 256 257 257 257 257 257 257 257 257 257 258 258 259 259 260 260 261 261 261 262 262 262 263 263 263 264 264 264 265 265 265 265 266 266 267 267 267
254 254 254 254 254 253 253 253 254 254 254 254 254 255 255 255 255 256 256 256 256 256 256 256 256 256 256 256 256 256 256 256 256 256 256 257 257 258 258 259 260 260 260 260 261 261 262 262 262 262 262 263 263 263 264 265 265 265 266 266 266 267 266
254 254 254 253 253 253 253 253 253 253 254 254 254 255 255 255 255 256 256 256 256 256 256 256 256 256 256 256 255 255 255 255 255 255 256 256 256 257 258 259 260 260 260 260 261 261 261 261 261 261 261 261 262 262 263 264 264 265 265 266 266 266 266
253 253 253 253 252 252 252 252 253 253 253 254 254 254 255 255 255 256 256 256 256 256 256 256 256 255 255 255 255 255 254 255 255 255 255 255 256 256 257 258 259 260 260 260 260 260 260 260 260 260 260 260 261 261 262 263 263 264 264 265 265 266 266
252 253 253 252 252 252 252 252 252 252 253 253 254 254 254 255 255 255 256 256 256 255 255 255 254 254 254 254 254 254 254 254 254 254 255 255 255 256 257 258 259 259 259 259 260 259 259 260 259 259 259 260 260 260 261 262 262 263 263 264 264 265 265
252 252 252 251 251 251 251 251 252 252 252 253 253 254 254 254 254 255 255 255 254 254 254 254 253 253 253 253 253 253 254 254 254 254 254 255 255 256 257 257 258 258 258 258 259 259 259 259 259 259 259 259 259 259 260 260 261 262 262 263 264 264 264
251 251 251 251 251 251 251 251 251 252 252 252 253 253 253 254 254 254 254 253 253 253 253 253 253 253 253 253 253 253 253 254 254 254 254 254 255 255 256 256 256 257 257 257 258 258 258 258 258 258 258 258 258 258 259 259 260 261 261 262 263 263 264
250 250 250 250 250 250 250 250 251 251 252 252 252 253 253 252 252 252 252 252 252 252 252 252 252 252 252 253 253 253 253 254 254 254 254 254 254 254 255 255 255 256 256 256 257 257 257 257 257 258 258 258 258 258 258 259 259 260 261 261 261 262 263
249 249 249 249 249 249 249 250 250 251 251 251 251 252 252 251 251 251 251 251 251 251 251 251 251 251 252 252 252 253 253 253 253 253 253 253 253 254 254 254 255 255 255 256 256 256 256 257 257 257 257 257 258 258 258 258 259 259 260 260 260 261 262
248 248 248 248 248 249 249 249 249 250 250 250 250 251 251 250 250 250 250 250 250 250 250 250 251 251 251 251 252 252 252 252 252 252 252 252 253 253 253 253 254 254 255 255 255 255 256 256 256 257 257 257 257 257 257 258 258 258 258 259 259 260 260
248 248 248 248 248 248 248 248 248 249 249 249 250 250 250 249 249 249 249 249 249 249 250 250 250 250 251 251 251 251 251 252 252 252 252 252 252 252 252 252 252 253 253 254 254 255 255 255 256 256 257 257 257 257 257 257 257 258 258 258 258 259 259
Wind_Speed
23 22 21 20 19 19 19 18 17 16 15 15 14 14 13 12 11 10 10 9 8 6 5 4 4 4 5 6 7 7 8 8 9 10 12 13 14 15 15 16 15 11 9 12 14 14 13 13 15 17 19 20 21 22 25 28 30 31 31 31 30 30 30
23 22 20 19 19 18 18 18 17 16 15 15 14 14 13 12 12 11 11 10 10 9 8 7 5 5 5 6 7 7 8 9 9 9 10 10 11 12 12 12 13 11 9 10 13 15 15 15 14 14 14 15 15 17 19 23 27 29 30 31 31 30 30
22 21 21 20 19 18 17 17 17 16 15 15 14 13 12 12 11 11 11 11 11 11 10 9 8 7 7 7 6 6 6 7 9 10 11 12 12 13 13 13 13 12 10 10 11 13 15 16 17 17 17 16 16 16 17 19 21 23 26 27 28 30 29
22 21 20 20 20 19 17 16 16 15 15 14 14 13 12 11 10 10 10 10 10 10 11 10 10 10 10 9 7 7 6 6 7 8 9 11 12 14 15 16 16 16 14 12 12 13 15 17 19 21 21 21 22 22 22 23 23 23 24 25 26 27 28
22 21 21 21 20 19 18 16 15 14 14 14 14 13 13 11 10 9 9 9 9 9 10 10 10 10 11 11 10 9 9 8 7 7 7 8 9 10 13 15 16 17 16 15 15 15 16 17 18 20 22 22 23 25 26 27 28 26 26 25 26 26 27
22 21 21 21 20 19 18 16 14 13 13 14 14 15 15 13 11 10 10 10 9 9 9 10 11 11 11 12 12 12 12 11 10 9 9 8 8 8 9 10 12 14 15 15 15 14 15 16 17 18 20 20 19 20 22 24 26 27 26 26 27 28 28
21 20 20 20 20 19 18 16 14 13 13 14 16 17 16 16 14 12 11 12 11 10 9 10 10 11 11 11 12 13 13 13 12 11 11 10 10 10 10 10 10 11 13 15 15 13 12 13 14 16 18 19 18 18 18 19 20 23 26 26 26 28 28
20 19 19 20 20 19 17 16 15 14 14 17 18 17 16 16 15 14 13 14 14 12 10 9 10 10 9 10 11 11 13 13 13 13 12 11 11 12 12 12 12 11 11 12 13 13 12 12 13 14 16 17 17 18 19 19 19 22 25 25 25 26 26
18 18 19 19 19 18 17 16 15 14 16 18 19 17 16 15 14 14 14 15 16 15 12 10 10 9 9 9 9 9 11 12 12 13 13 12 12 12 12 13 13 13 12 12 12 11 12 12 12 13 14 15 16 16 17 17 17 20 22 22 25 28 27
16 18 19 19 19 18 17 15 14 13 15 17 17 16 16 16 15 15 15 16 17 17 16 14 12 11 10 9 8 8 9 10 11 12 13 13 13 12 12 12 12 12 12 12 11 10 10 10 10 11 11 13 15 15 16 16 16 18 19 18 20 25 27
16 18 18 18 18 17 16 15 13 13 16 17 16 15 16 15 15 14 14 16 18 19 19 17 15 13 12 12 11 9 10 10 10 11 12 13 13 12 11 11 12 12 11 11 11 11 11 10 10 9 9 11 14 15 16 16 15 16 16 14 14 16 18
17 18 17 17 18 17 15 14 13 13 16 18 17 16 16 14 13 13 15 17 18 19 19 18 16 14 13 13 12 12 12 12 12 11 11 12 14 13 13 12 12 13 13 12 12 13 12 11 11 11 9 9 11 12 14 14 13 13 12 12 13 13 12
19 17 17 18 19 18 15 14 14 14 17 19 18 16 15 13 13 14 16 17 18 18 17 16 16 16 14 13 12 13 14 15 15 15 14 14 14 15 15 15 13 12 11 12 13 15 16 15 14 15 15 12 11 12 14 14 14 14 12 12 13 13 13
19 18 18 19 19 17 15 14 15 17 18 18 17 15 14 14 14 15 16 16 16 17 15 14 15 15 14 13 12 11 13 14 15 16 17 17 16 16 16 16 15 14 13 14 14 16 18 17 16 17 18 17 16 18 20 19 19 18 18 18 18 19 20
20 19 19 19 19 18 16 16 16 17 18 17 16 15 14 15 16 14 13 13 14 16 14 13 14 14 14 14 13 11 11 12 12 14 15 16 17 17 18 17 17 17 16 17 17 17 18 18 17 18 19 19 20 21 22 22 22 22 22 23 23 25 26
21 20 21 20 19 19 19 17 15 15 16 16 16 16 15 16 15 13 11 13 15 15 14 13 14 15 15 16 16 14 13 12 12 13 15 16 17 18 19 20 20 19 17 16 16 16 16 16 16 15 16 16 15 14 14 14 16 17 17 18 20 22 24
22 21 21 20 19 19 19 17 14 14 15 16 16 16 16 16 15 13 13 14 14 13 13 14 16 17 18 19 18 17 16 15 15 16 17 18 18 20 22 22 21 19 18 16 16 16 17 16 16 16 16 15 13 12 12 13 14 13 12 13 14 15 18
21 20 19 19 17 17 17 16 14 13 14 16 16 16 16 16 15 14 14 14 14 14 15 16 16 15 15 15 15 16 15 15 16 17 19 19 19 21 22 20 18 17 18 19 20 22 22 21 21 21 22 22 20 19 18 16 16 15 13 13 13 12 14
20 19 18 16 16 15 15 16 14 13 14 15 15 15 16 15 15 16 17 17 18 19 17 13 12 12 13 14 15 15 15 15 16 17 18 19 19 19 18 18 18 19 19 18 18 19 20 21 22 22 23 24 23 23 22 21 21 20 17 16 16 14 12
18 18 16 15 15 15 15 15 14 13 13 14 15 15 16 17 18 20 21 21 21 19 14 11 12 14 15 16 17 17 17 17 16 17 18 19 19 18 18 19 19 17 14 12 13 15 17 19 21 22 23 24 24 23 23 22 24 24 22 20 20 18 14
16 17 16 15 15 15 13 13 13 13 13 14 15 15 17 19 20 21 21 19 16 13 11 10 12 13 13 14 16 17 18 17 16 16 17 16 16 16 17 17 15 12 11 12 14 17 19 21 22 23 24 24 22 20 19 18 18 20 21 22 22 20 18
16 17 17 15 14 13 12 12 13 15 16 16 17 18 19 20 20 19 19 16 14 12 12 13 14 14 13 14 16 17 18 17 17 18 17 16 16 17 17 17 16 15 16 16 17 18 21 22 23 23 23 23 22 20 19 20 20 19 18 19 21 20 18
15 16 16 15 15 14 14 15 17 19 20 20 21 20 20 20 20 18 17 16 16 16 17 18 17 16 15 16 17 18 19 19 20 21 20 20 21 21 21 20 20 20 20 20 20 20 22 23 22 22 23 23 23 22 21 21 23 23 22 21 21 21 21
14 15 15 17 18 18 18 19 20 21 21 22 22 21 20 20 19 18 18 19 18 18 19 19 19 18 18 18 18 19 19 20 22 23 24 24 24 25 25 25 25 24 23 22 22 21 23 23 21 21 22 22 22 22 21 21 22 22 23 23 23 24 25
14 14 15 16 18 20 21 21 22 22 22 22 22 22 21 20 19 18 19 19 19 19 20 21 21 20 19 18 18 18 19 21 23 24 24 24 24 25 25 25 25 24 23 22 22 22 22 21 20 19 20 21 21 21 21 20 20 19 19 20 21 23 25
15 15 16 17 19 21 22 22 23 23 22 22 22 22 21 20 20 19 19 19 20 21 22 23 23 22 20 18 17 18 19 21 22 23 23 23 23 22 22 22 23 23 22 21 21 19 18 17 16 15 15 16 17 18 18 18 19 19 19 19 19 21 24
16 17 18 19 20 21 22 23 22 22 22 22 22 23 23 22 22 22 22 22 22 23 23 24 22 20 18 18 19 20 21 22 23 23 23 24 23 22 21 21 22 21 20 19 17 14 12 12 12 13 13 14 15 16 16 16 16 18 20 20 18 19 21
18 18 19 19 20 21 22 22 22 22 22 22 23 24 24 24 23 23 23 23 23 23 23 21 19 18 18 19 21 22 23 24 24 24 24 24 23 21 20 20 19 16 14 13 11 9 9 11 12 14 15 15 17 17 16 15 15 16 18 18 17 17 19
20 20 19 19 20 21 21 22 21 21 21 21 21 22 22 22 22 22 22 22 21 21 20 18 17 17 18 19 20 22 23 24 24 25 25 24 23 22 20 19 17 13 10 9 9 9 10 11 12 14 15 15 17 17 17 16 16 15 15 16 16 16 18
18 18 18 19 20 19 19 20 21 21 21 21 20 20 20 20 20 19 19 19 18 17 17 16 17 18 18 19 20 21 22 22 23 24 24 24 23 21 19 17 15 11 8 8 8 9 9 10 11 12 14 15 16 17 17 16 15 15 14 14 14 15 16
16 16 16 17 19 19 18 19 19 19 19 20 20 20 20 19 19 18 17 16 16 16 16 17 17 19 19 19 19 20 21 22 23 22 22 21 19 16 13 12 11 9 8 8 9 9 9 10 11 12 13 15 16 17 18 18 17 16 16 14 14 15 17
15 16 16 16 17 18 19 19 18 18 18 18 18 18 18 17 16 14 14 14 15 16 17 18 18 19 19 19 19 20 21 21 20 17 15 14 14 14 13 12 11 11 11 11 11 11 11 11 12 13 14 16 17 18 19 19 19 18 17 16 16 15 16
15 15 16 16 17 17 17 18 18 17 17 16 16 16 15 14 13 13 14 15 15 16 17 18 18 19 20 20 20 20 19 16 14 12 12 12 13 14 15 14 14 14 13 13 13 13 13 13 13 13 14 16 17 18 18 18 17 18 18 17 17 16 15
18 18 18 18 18 17 16 16 16 16 16 16 16 15 15 15 16 17 18 18 16 15 16 17 17 18 18 18 18 17 15 13 12 12 13 13 14 15 16 16 16 15 15 14 14 14 14 14 14 14 15 16 17 16 15 14 14 15 16 16 16 16 16
22 23 21 19 17 16 15 15 16 17 17 17 17 16 16 17 18 19 19 19 16 14 14 15 15 15 15 14 14 13 12 11 12 13 14 14 15 16 17 17 17 16 16 15 15 15 15 15 15 14 14 15 14 13 12 12 13 14 15 15 15 16 16
24 24 22 20 18 17 17 17 18 18 17 16 15 14 14 15 16 17 18 19 17 14 13 14 14 14 13 13 13 13 13 13 14 14 15 15 16 17 18 18 17 17 17 17 17 16 16 15 15 15 14 13 12 11 11 12 13 14 15 15 14 15 15
Wind_Direction
49 48 46 47 47 49 48 46 46 47 49 51 51 50 49 48 50 49 45 40 34 29 20 4 342 316 303 297 286 275 273 270 264 261 257 254 255 253 253 253 248 249 261 261 260 263 262 261 262 261 258 257 257 256 254 251 249 249 250 251 252 252 250
48 47 45 44 44 44 44 42 39 38 40 42 42 43 43 42 41 39 37 34 29 24 20 15 6 348 329 314 296 282 280 279 273 271 267 261 261 260 255 255 256 257 264 268 267 265 260 257 262 267 268 267 267 265 262 259 256 256 258 258 257 256 253
43 44 43 42 41 40 39 39 38 35 35 36 34 35 36 36 37 34 30 28 24 20 16 11 7 359 347 339 327 306 292 286 280 276 275 271 270 271 268 266 269 270 271 276 276 273 269 265 266 268 269 270 274 274 273 271 267 264 264 264 263 261 259
36 36 37 36 35 34 33 33 34 33 32 31 29 27 25 27 29 27 23 20 15 12 10 6 2 357 350 345 341 334 324 314 300 288 285 280 276 277 276 273 274 275 276 278 277 274 273 272 271 271 271 272 274 273 273 274 274 272 269 267 267 266 264
30 28 28 28 27 27 27 26 26 27 27 25 25 20 13 14 17 14 12 13 10 6 3 359 353 348 347 344 340 336 331 327 322 316 309 298 289 287 285 280 278 278 279 278 275 275 275 273 272 272 272 274 275 274 272 272 272 273 272 271 269 268 267
25 23 22 20 20 21 21 19 19 21 19 17 18 14 4 1 4 4 1 359 358 357 355 354 348 342 341 341 338 335 331 325 319 315 314 312 306 299 295 289 284 284 285 282 279 278 278 274 271 269 269 269 269 271 271 270 270 269 268 269 269 268 268
20 19 16 13 14 16 14 14 14 13 14 14 14 8 358 353 353 353 351 344 340 343 345 349 349 343 342 342 337 334 331 327 322 315 311 310 308 302 299 295 289 286 286 283 280 278 276 276 274 271 268 267 265 265 267 268 271 269 264 264 267 267 267
14 13 11 8 9 10 10 10 9 9 12 11 8 2 354 351 350 349 345 336 330 330 331 335 339 340 343 343 338 333 327 324 323 319 314 311 309 304 300 298 294 292 289 286 282 276 272 272 273 272 271 271 267 265 265 266 269 270 268 268 269 268 268
9 7 5 4 4 5 7 8 7 10 11 4 359 354 348 347 346 343 340 333 329 325 320 315 315 317 325 331 334 333 326 318 316 315 313 313 313 310 306 302 299 296 295 295 289 280 274 267 261 262 266 267 266 265 269 271 271 271 273 275 274 271 270
6 2 360 360 0 1 3 6 6 9 4 355 351 348 343 340 339 336 334 332 329 326 322 317 307 299 297 302 311 324 323 310 303 304 305 307 311 312 310 308 307 303 301 299 295 289 285 275 265 261 259 263 268 273 277 278 275 274 275 276 276 274 272
1 358 357 357 357 356 357 360 4 3 354 348 347 345 341 337 333 329 327 327 327 326 324 320 313 303 294 290 293 304 309 301 293 295 297 297 300 302 304 307 309 307 303 302 299 295 293 289 286 282 270 267 274 278 278 276 275 275 276 271 267 272 276
357 356 357 355 354 353 351 352 358 357 348 343 343 342 339 332 326 324 324 323 323 322 320 320 319 316 308 298 293 293 296 295 293 293 293 290 288 287 290 298 303 302 299 297 296 293 292 292 297 298 291 285 285 281 277 277 276 276 278 272 263 265 271
353 355 354 351 349 348 346 345 350 350 342 338 337 338 336 328 323 325 325 323 323 323 322 323 326 328 324 314 303 294 292 293 293 293 293 291 288 284 284 288 290 290 291 292 293 291 288 287 290 291 287 285 290 293 292 290 287 284 286 282 275 272 270
350 352 349 346 345 344 341 339 341 340 336 334 334 334 330 325 324 325 324 324 328 329 329 331 333 336 335 328 319 308 303 300 297 295 293 292 290 286 284 283 280 278 279 284 290 290 289 289 288 285 283 280 279 285 290 291 289 287 286 284 282 281 278
347 346 344 344 344 342 338 336 338 337 334 333 333 331 328 326 327 326 323 324 328 328 327 328 330 330 327 322 318 316 314 311 309 304 297 291 288 286 285 283 280 280 282 285 289 288 289 292 291 288 288 285 280 280 282 282 282 282 282 283 283 281 278
343 341 341 342 342 341 338 339 343 341 337 335 334 333 332 330 329 327 324 326 328 326 321 318 318 319 317 314 310 306 306 311 314 310 303 297 292 288 285 283 282 283 283 286 290 289 289 291 292 292 291 287 285 285 286 285 283 282 283 281 277 275 274
338 338 339 339 341 342 341 343 349 348 340 337 335 335 334 332 331 328 326 327 328 323 315 310 309 310 311 311 310 307 306 307 308 303 301 301 299 294 290 286 284 282 279 278 279 280 282 283 283 284 284 283 282 284 291 298 293 290 294 287 274 270 273
335 336 339 341 343 344 343 344 350 350 342 337 335 336 336 334 331 330 331 332 329 324 319 315 313 312 313 316 320 319 313 308 303 301 301 303 302 297 292 288 286 284 283 280 276 274 276 276 274 274 276 279 280 278 281 290 293 292 294 290 281 280 283
334 334 339 343 345 346 345 343 346 349 344 338 336 338 339 337 337 338 338 335 330 327 326 324 321 319 317 318 322 323 317 311 308 307 306 307 307 303 297 298 298 292 288 285 280 279 280 279 277 277 277 279 280 278 275 276 280 285 284 277 273 278 285
334 334 337 343 344 344 343 342 344 349 347 341 338 338 338 340 341 341 336 331 327 327 327 325 321 316 312 311 315 318 317 312 308 305 303 303 307 307 307 309 305 292 283 279 275 278 283 284 285 286 286 285 285 283 279 274 273 276 275 268 264 266 269
333 332 333 338 340 340 342 346 349 349 346 341 338 336 336 338 338 336 332 331 332 332 331 330 327 320 317 320 322 323 321 313 307 306 304 305 309 310 313 319 315 303 295 289 281 281 285 288 292 295 294 292 289 285 281 278 275 273 270 264 259 259 262
331 331 331 333 336 336 337 339 339 336 334 332 330 329 330 330 328 327 328 331 336 336 332 331 329 326 325 328 327 324 320 316 316 318 317 317 318 316 315 320 319 313 310 306 298 294 294 296 300 302 299 296 290 282 272 268 270 274 273 267 262 261 265
335 335 333 331 329 327 325 323 324 324 324 323 322 323 324 322 319 317 318 321 325 327 326 325 326 324 324 324 321 317 315 316 318 316 310 308 310 309 307 308 307 305 306 306 303 301 299 300 302 302 299 295 292 288 281 271 267 269 271 271 269 267 268
338 337 334 331 328 326 323 322 322 321 321 321 321 322 322 320 316 312 309 310 314 318 320 322 322 320 319 318 316 313 312 311 309 305 300 299 300 300 301 302 301 300 300 298 296 296 297 300 301 301 300 298 297 296 293 286 277 271 270 273 274 271 270
339 337 334 333 331 330 328 327 325 322 322 323 323 323 324 322 316 310 306 305 307 309 312 316 317 316 316 316 315 314 312 309 307 306 304 301 299 298 299 300 300 299 296 291 290 292 294 297 301 302 303 304 303 300 296 291 284 278 273 271 273 273 271
339 338 336 333 331 331 329 328 326 325 324 325 324 324 324 323 319 315 311 308 307 308 310 312 313 314 314 315 315 314 312 309 308 309 307 305 303 301 301 302 302 299 294 290 290 293 296 301 307 312 313 314 313 309 304 298 290 284 278 273 273 273 271
335 334 333 331 330 330 328 326 325 323 323 324 323 322 321 318 316 315 312 310 309 309 309 309 310 309 308 310 311 310 308 309 309 309 308 308 307 305 303 306 307 299 291 289 291 292 297 303 307 311 313 317 318 315 311 306 300 292 287 282 278 277 278
329 328 327 327 329 329 325 321 320 320 321 321 320 317 316 314 312 310 308 307 307 306 305 304 303 304 306 309 311 311 312 312 312 312 312 312 313 311 308 312 313 301 284 279 279 279 289 299 302 306 309 312 313 311 307 308 307 299 292 287 278 272 275
321 320 320 322 325 325 319 315 315 317 317 316 314 313 311 310 308 307 304 302 302 302 303 305 307 310 313 314 314 314 315 314 313 313 313 315 317 316 314 316 317 304 280 272 275 281 294 305 310 313 315 315 314 310 307 309 310 304 297 293 283 272 270
314 313 316 318 320 318 313 310 312 313 313 312 312 311 310 308 308 307 306 307 310 311 312 315 316 315 315 315 314 313 312 311 311 310 311 314 318 319 317 318 317 305 287 283 288 294 304 314 317 318 320 320 318 315 310 308 309 308 305 300 292 281 277
312 311 315 317 317 316 313 311 311 312 313 313 313 313 311 309 307 306 309 315 321 321 319 318 316 313 312 312 311 310 309 307 307 306 308 313 320 325 330 332 327 318 312 311 309 309 312 317 319 320 321 321 320 318 312 307 305 307 309 306 300 290 283
315 316 317 317 317 317 315 314 314 314 314 315 316 317 317 314 312 313 318 323 324 322 320 318 311 307 307 306 305 306 307 307 308 310 314 321 328 333 336 340 339 334 329 326 323 320 319 319 319 319 318 317 317 315 313 309 305 304 307 309 308 300 290
318 319 320 320 320 318 316 315 315 316 316 317 319 321 325 329 330 328 330 331 328 324 324 321 312 303 301 301 302 305 307 307 310 316 322 328 331 330 329 329 330 330 328 325 324 323 321 319 318 316 316 316 314 311 310 308 305 302 303 305 305 302 297
324 325 325 324 322 320 319 319 318 319 319 320 319 321 324 325 320 316 318 324 326 325 328 330 323 312 307 305 305 305 305 306 310 317 322 324 325 325 323 321 320 321 323 324 324 323 320 317 315 314 316 316 315 313 310 307 306 307 307 305 304 301 299
324 325 327 328 327 325 325 324 322 322 321 319 318 319 318 318 319 320 322 325 325 324 328 333 331 327 324 322 317 312 312 313 315 318 321 322 323 323 322 320 318 317 317 318 319 319 317 315 313 313 313 314 315 315 315 312 313 316 316 314 311 307 302
321 324 327 328 329 329 327 326 324 322 320 319 320 321 320 323 329 331 330 328 325 323 324 328 329 329 330 328 324 321 319 318 317 317 318 319 321 321 320 319 318 317 315 314 314 314 313 312 310 309 309 309 308 310 312 313 315 319 320 318 318 316 311